Mountain Home, ID

6:20 PM MST on November 24, 2017 (GMT -0700)
Mountain Home Air Force Base

Weather History for KMUO - November, 2013

Change the Weather History Date:

Saturday, November 30, 2013

  Actual Average Record
Temperature  
Mean Temperature 37 °F 33 °F  
Max Temperature 45 °F 41 °F 63 °F (1953)
Min Temperature 28 °F 23 °F -5 °F (1914)
Degree Days  
Heating Degree Days 28 32  
Month to date heating degree days 799 784  
Cooling Degree Days 0 0  
Month to date cooling degree days 0 0  
Moisture  
Dew Point 33 °F    
Average Humidity 88    
Maximum Humidity 100    
Minimum Humidity 61    
Precipitation  
Precipitation 0.00 in 0.04 in 1.02 in (1921)
Month to date precipitation 0.32  
Sea Level Pressure  
Sea Level Pressure 30.33 in    
Wind  
Wind Speed 3 mph (WNW)    
Max Wind Speed 7 mph    
Max Gust Speed -    
Visibility 10 miles    
Events      
T = Trace of Precipitation, MM = Missing Value Source: NWS Daily Summary

Daily Weather History Graph

Daily Weather History Graph

Search for Another Location

Airport or City:

Trip Planner

Search our weather history database for the weather conditions in past years. The results will help you decide how hot, cold, wet, or windy it might be!

Date:

Astronomy

Nov. 30, 2013 Rise Set
Actual Time 7:54 AM MST 5:09 PM MST
Civil Twilight 7:22 AM MST 5:41 PM MST
Nautical Twilight 6:47 AM MST 6:17 PM MST
Astronomical Twilight 6:13 AM MST 6:51 PM MST
Moon 5:06 AM MST (11/30) 3:40 PM MST (11/30)
Length of Visible Light 10h 19m
Length of Day
9h 15m
Waning Crescent, 7% of the Moon is Illuminated
Nov 30
Waning Crescent
Dec 2
New
Dec 9
First Quarter
Dec 17
Full
Dec 25
Last Quarter

Hourly Weather History & Observations

Time (MST) Temp. Windchill Dew Point Humidity Pressure Visibility Wind Dir Wind Speed Gust Speed Precip Events Conditions
12:13 AM 28.4 °F - 28.4 °F 100% 30.28 in 10.0 mi WNW 2.3 mph - N/A   Overcast
12:18 AM 30.2 °F 24.3 °F 30.2 °F 100% 30.29 in 9.0 mi WNW 5.8 mph - N/A   Overcast
12:53 AM 32.0 °F - 32.0 °F 100% 30.28 in 10.0 mi NNW 2.3 mph - N/A   Overcast
12:58 AM 30.9 °F - 30.6 °F 99% 30.33 in 10.0 mi North 2.3 mph - N/A   Overcast
1:58 AM 30.0 °F - 29.8 °F 99% 30.34 in 10.0 mi South 1.2 mph - N/A   Overcast
2:03 AM 30.2 °F - 30.2 °F 100% 30.29 in 9.0 mi SW 1.2 mph - N/A   Overcast
2:58 AM 30.7 °F 27.3 °F 30.6 °F 99% 30.35 in 8.0 mi SW 3.5 mph - N/A   Overcast
3:58 AM 31.1 °F 25.4 °F 30.7 °F 99% 30.32 in 8.0 mi South 5.8 mph - N/A   Overcast
4:58 AM 30.4 °F 25.6 °F 30.4 °F 100% 30.34 in 9.0 mi SE 4.6 mph - N/A   Overcast
5:13 AM 32.0 °F 26.4 °F 32.0 °F 100% 30.28 in 10.0 mi ESE 5.8 mph - N/A   Overcast
5:58 AM 30.9 °F 26.2 °F 30.9 °F 100% 30.35 in 10.0 mi ENE 4.6 mph - N/A   Overcast
6:08 AM 32.0 °F 27.5 °F 32.0 °F 100% 30.28 in 10.0 mi East 4.6 mph - N/A   Overcast
6:18 AM 32.0 °F 27.5 °F 32.0 °F 100% 30.29 in 10.0 mi ENE 4.6 mph - N/A   Overcast
6:28 AM 32.0 °F 27.5 °F 32.0 °F 100% 30.29 in 10.0 mi East 4.6 mph - N/A   Overcast
6:58 AM 31.6 °F 28.3 °F 31.6 °F 100% 30.36 in 9.0 mi East 3.5 mph - N/A   Overcast
7:08 AM 32.0 °F 28.7 °F 32.0 °F 100% 30.29 in 9.0 mi ENE 3.5 mph - N/A   Overcast
7:18 AM 32.0 °F - 32.0 °F 100% 30.30 in 10.0 mi ENE 2.3 mph - N/A   Overcast
7:33 AM 32.0 °F - 32.0 °F 100% 30.31 in 10.0 mi East 1.2 mph - N/A   Overcast
7:58 AM 31.5 °F 28.1 °F 31.3 °F 99% 30.38 in 9.0 mi East 3.5 mph - N/A   Overcast
8:48 AM 32.0 °F - 32.0 °F 100% 30.32 in 9.0 mi Calm Calm - N/A   Overcast
8:58 AM 32.4 °F - 32.0 °F 99% 30.40 in 8.0 mi Calm Calm - N/A   Overcast
9:13 AM 32.0 °F - 32.0 °F 100% 30.33 in 9.0 mi Calm Calm - N/A   Overcast
9:58 AM 35.6 °F 32.8 °F 35.2 °F 99% 30.40 in 10.0 mi South 3.5 mph - N/A   Overcast
10:58 AM 39.4 °F 36.1 °F 34.9 °F 84% 30.41 in 10.0 mi West 4.6 mph - N/A   Mostly Cloudy
11:58 AM 41.5 °F 39.6 °F 33.1 °F 72% 30.39 in 10.0 mi NW 3.5 mph - N/A   Overcast
12:58 PM 43.2 °F - 33.1 °F 68% 30.36 in 10.0 mi Calm Calm - N/A   Scattered Clouds
1:08 PM 42.8 °F - 32.0 °F 66% 30.30 in 10.0 mi Calm Calm - N/A   Mostly Cloudy
1:58 PM 43.7 °F 41.1 °F 34.0 °F 69% 30.34 in 10.0 mi SW 4.6 mph - N/A   Overcast
2:58 PM 44.6 °F 42.2 °F 33.6 °F 65% 30.34 in 10.0 mi West 4.6 mph - N/A   Overcast
3:08 PM 44.6 °F 42.2 °F 32.0 °F 61% 30.29 in 10.0 mi WNW 4.6 mph - N/A   Overcast
3:13 PM 44.6 °F 40.7 °F 32.0 °F 61% 30.29 in 10.0 mi WNW 6.9 mph - N/A   Overcast
3:18 PM 44.6 °F 41.4 °F 32.0 °F 61% 30.29 in 10.0 mi NW 5.8 mph - N/A   Overcast
3:33 PM 44.6 °F 41.4 °F 33.8 °F 66% 30.30 in 10.0 mi WNW 5.8 mph - N/A   Overcast
3:58 PM 44.8 °F 41.6 °F 34.3 °F 67% 30.35 in 10.0 mi WNW 5.8 mph - N/A   Overcast
4:08 PM 44.6 °F 41.4 °F 33.8 °F 66% 30.30 in 10.0 mi West 5.8 mph - N/A   Overcast
4:58 PM 42.1 °F 38.4 °F 35.6 °F 78% 30.35 in 10.0 mi WSW 5.8 mph - N/A   Overcast
5:13 PM 41.0 °F 37.1 °F 33.8 °F 76% 30.30 in 10.0 mi WSW 5.8 mph - N/A   Overcast
5:18 PM 39.2 °F 35.0 °F 33.8 °F 81% 30.30 in 10.0 mi WSW 5.8 mph - N/A   Overcast
5:58 PM 39.4 °F 35.2 °F 34.2 °F 82% 30.37 in 10.0 mi WSW 5.8 mph - N/A   Overcast
6:58 PM 40.3 °F 37.1 °F 34.9 °F 81% 30.37 in 10.0 mi West 4.6 mph - N/A   Overcast
7:58 PM 40.1 °F - 36.3 °F 86% 30.36 in 10.0 mi NW 2.3 mph - N/A   Overcast
8:58 PM 39.4 °F - 36.7 °F 90% 30.37 in 10.0 mi Calm Calm - N/A   Overcast
9:58 PM 38.3 °F - 36.9 °F 95% 30.35 in 10.0 mi Calm Calm - N/A   Overcast
10:13 PM 37.4 °F - 37.4 °F 100% 30.30 in 10.0 mi Calm Calm - N/A   Overcast
10:18 PM 37.4 °F - 37.4 °F 100% 30.30 in 10.0 mi WNW 2.3 mph - N/A   Overcast
10:58 PM 38.7 °F 35.2 °F 37.4 °F 95% 30.35 in 10.0 mi NNE 4.6 mph - N/A   Overcast
11:58 PM 39.6 °F 36.3 °F 37.2 °F 91% 30.36 in 10.0 mi NNW 4.6 mph - N/A   Overcast